sat.trackr.live / text

‹ back to catalog

STARLINK-2504

NORAD 48328 · 2021-036BE

PAYLOAD ACTIVE UNKNOWN

§ Identity

Operator
Country
US
Launch date
2021-04-29
Launch site
AFETR
Launch vehicle
Mass (kg)
RCS (m²)

Purposes: comms

External: N2YO · Heavens-Above · Gunter

§ Orbital elements

Epoch: 2026-05-25T03:08:54.230208Z

Period
94.01 min
Inclination
53.1611°
Eccentricity
0.0001289
Mean motion
15.31692507 rev/d
Perigee alt
469.9 km
Apogee alt
471.6 km
Semi-major
6,848.9 km
B*
3.2177e-5
RAAN
105.4557°
Arg perigee
91.8224°
Mean anomaly
268.2925°
Rev number
27,974

§ Raw data

STARLINK-25041 48328U 21036BE  26145.13118322  .00000633  00000+0  32177-4 0  99912 48328  53.1611 105.4557 0001289  91.8224 268.2925 15.31692507279749

JSON: /api/v1/satellites/48328 · /tle

For live sub-satellite position, see the globe view (requires WebGL).

§ Visibility from observer

Set your observer location to see the next 7 days of passes ≥ 10°. The values pass through the URL so the page stays shareable.

No JS? Fill the form by hand. The geolocation button needs JavaScript.